Time,TemperatureF,DewpointF,PressureIn,WindDirection,WindDirectionDegrees,WindSpeedMPH,WindSpeedGustMPH,Humidity,HourlyPrecipIn,Conditions,Clouds,dailyrainin,SoftwareType,DateUTC
2013-10-12 00:01:00,41.7,40.1,30.05,SSW,202,0.0,1.1,94,0.00,,,0.33,open2300-1.11,2013-10-11 22:01:00,
2013-10-12 00:11:00,41.5,39.9,30.05,SSW,202,0.0,0.0,94,0.00,,,0.33,open2300-1.11,2013-10-11 22:11:00,
2013-10-12 00:21:00,41.5,39.9,30.06,SSW,202,0.0,1.1,94,0.00,,,0.33,open2300-1.11,2013-10-11 22:21:00,
2013-10-12 00:31:00,41.5,39.9,30.07,SSW,202,1.8,2.5,94,0.00,,,0.33,open2300-1.11,2013-10-11 22:31:00,
2013-10-12 00:51:00,41.4,39.7,30.05,SSW,202,0.0,2.5,94,0.00,,,0.33,open2300-1.11,2013-10-11 22:51:00,
2013-10-12 01:01:00,41.4,39.7,30.06,South,180,0.0,1.6,94,0.00,,,0.33,open2300-1.11,2013-10-11 23:01:00,
2013-10-12 01:21:00,41.4,39.7,30.06,SSW,202,0.0,0.0,94,0.00,,,0.33,open2300-1.11,2013-10-11 23:21:00,
2013-10-12 01:31:00,41.4,39.7,30.06,SW,225,0.0,2.0,94,0.00,,,0.33,open2300-1.11,2013-10-11 23:31:00,
2013-10-12 01:41:00,41.4,39.7,30.06,SSW,202,0.0,0.0,94,0.00,,,0.33,open2300-1.11,2013-10-11 23:41:00,
2013-10-12 01:51:00,41.5,39.9,30.06,SSW,202,0.0,0.0,94,0.00,,,0.33,open2300-1.11,2013-10-11 23:51:00,
2013-10-12 02:01:00,41.2,39.6,30.06,South,180,0.0,0.0,94,0.00,,,0.33,open2300-1.11,2013-10-12 00:01:00,
2013-10-12 02:11:00,41.2,39.6,30.06,SSW,202,0.0,0.0,94,0.00,,,0.33,open2300-1.11,2013-10-12 00:11:00,
2013-10-12 02:21:00,40.8,39.2,30.07,South,180,0.0,2.0,94,0.00,,,0.33,open2300-1.11,2013-10-12 00:21:00,
2013-10-12 02:31:00,40.6,39.0,30.06,South,180,0.0,0.0,94,0.00,,,0.33,open2300-1.11,2013-10-12 00:31:00,
2013-10-12 02:41:00,40.1,38.5,30.06,SSW,202,0.0,2.2,94,0.00,,,0.33,open2300-1.11,2013-10-12 00:41:00,
2013-10-12 02:51:00,39.9,38.3,30.06,SSW,202,1.3,2.5,94,0.00,,,0.33,open2300-1.11,2013-10-12 00:51:00,
2013-10-12 03:05:00,40.1,38.5,30.06,SSW,202,0.0,3.1,94,0.00,,,0.33,open2300-1.11,2013-10-12 01:05:00,
2013-10-12 03:11:00,40.1,38.5,30.06,SSW,202,0.0,0.0,94,0.00,,,0.33,open2300-1.11,2013-10-12 01:11:00,
2013-10-12 03:21:00,40.3,38.7,30.06,WSW,247,0.0,0.9,94,0.00,,,0.33,open2300-1.11,2013-10-12 01:21:00,
2013-10-12 03:31:00,40.3,38.7,30.07,SSW,202,1.1,2.2,94,0.00,,,0.33,open2300-1.11,2013-10-12 01:31:00,
2013-10-12 03:41:00,40.3,38.7,30.06,SW,225,0.0,0.0,94,0.00,,,0.33,open2300-1.11,2013-10-12 01:41:00,
2013-10-12 03:51:00,40.6,39.0,30.07,WSW,247,0.0,0.7,94,0.00,,,0.33,open2300-1.11,2013-10-12 01:51:00,
2013-10-12 04:01:00,40.8,39.2,30.07,WSW,247,0.0,0.9,94,0.00,,,0.33,open2300-1.11,2013-10-12 02:01:00,
2013-10-12 04:11:00,41.0,39.4,30.07,WSW,247,0.0,0.0,94,0.00,,,0.33,open2300-1.11,2013-10-12 02:11:00,
2013-10-12 04:21:00,41.2,39.6,30.06,WSW,247,0.0,0.0,94,0.00,,,0.33,open2300-1.11,2013-10-12 02:21:00,
2013-10-12 04:31:00,41.4,39.7,30.07,WSW,247,0.0,0.9,94,0.00,,,0.33,open2300-1.11,2013-10-12 02:31:00,
2013-10-12 04:41:00,41.2,39.6,30.06,WSW,247,0.0,0.0,94,0.00,,,0.33,open2300-1.11,2013-10-12 02:41:00,
2013-10-12 04:51:00,41.2,39.6,30.05,SSW,202,0.0,1.3,94,0.00,,,0.33,open2300-1.11,2013-10-12 02:51:00,
2013-10-12 05:01:00,41.2,39.6,30.04,SSW,202,0.0,0.0,94,0.00,,,0.33,open2300-1.11,2013-10-12 03:01:00,
2013-10-12 05:11:00,41.2,39.6,30.03,WSW,247,0.0,1.3,94,0.00,,,0.33,open2300-1.11,2013-10-12 03:11:00,
2013-10-12 05:21:00,41.4,39.7,30.03,WSW,247,0.0,0.7,94,0.00,,,0.33,open2300-1.11,2013-10-12 03:21:00,
2013-10-12 05:31:00,41.4,39.7,30.05,ENE,67,0.0,1.1,94,0.00,,,0.33,open2300-1.11,2013-10-12 03:31:00,
2013-10-12 05:41:00,41.5,39.9,30.04,East,90,0.0,1.6,94,0.00,,,0.33,open2300-1.11,2013-10-12 03:41:00,
2013-10-12 05:51:00,41.5,39.9,30.04,ENE,67,0.0,0.0,94,0.00,,,0.33,open2300-1.11,2013-10-12 03:51:00,
2013-10-12 06:01:00,41.7,40.1,30.03,NE,45,0.0,0.0,94,0.00,,,0.33,open2300-1.11,2013-10-12 04:01:00,
2013-10-12 06:05:00,41.7,40.1,30.04,NE,45,0.0,0.0,94,0.00,,,0.33,open2300-1.11,2013-10-12 04:05:00,
2013-10-12 06:11:00,41.9,40.3,30.04,NE,45,0.0,0.0,94,0.00,,,0.33,open2300-1.11,2013-10-12 04:11:00,
2013-10-12 06:21:00,42.1,40.5,30.04,NE,45,0.0,0.0,94,0.00,,,0.33,open2300-1.11,2013-10-12 04:21:00,
2013-10-12 06:31:00,42.3,40.6,30.04,SSW,202,0.0,1.6,94,0.00,,,0.33,open2300-1.11,2013-10-12 04:31:00,
2013-10-12 06:41:00,42.4,40.8,30.03,NW,315,0.7,0.9,94,0.00,,,0.33,open2300-1.11,2013-10-12 04:41:00,
2013-10-12 06:51:00,42.4,40.8,30.03,North,0,2.5,2.5,94,0.00,,,0.33,open2300-1.11,2013-10-12 04:51:00,
2013-10-12 07:01:00,42.4,40.8,30.02,North,0,0.0,0.9,94,0.00,,,0.33,open2300-1.11,2013-10-12 05:01:00,
2013-10-12 07:05:00,42.4,40.8,30.02,NNE,22,0.0,1.1,94,0.00,,,0.33,open2300-1.11,2013-10-12 05:05:00,
2013-10-12 07:11:00,42.4,40.8,30.02,NNE,22,0.0,0.0,94,0.00,,,0.33,open2300-1.11,2013-10-12 05:11:00,
2013-10-12 07:21:00,42.4,40.8,30.02,North,0,0.0,0.0,94,0.00,,,0.33,open2300-1.11,2013-10-12 05:21:00,
2013-10-12 07:31:00,42.4,40.8,30.02,North,0,0.0,0.0,94,0.00,,,0.33,open2300-1.11,2013-10-12 05:31:00,
2013-10-12 07:41:00,42.4,40.8,30.01,North,0,0.0,1.3,94,0.00,,,0.33,open2300-1.11,2013-10-12 05:41:00,
2013-10-12 07:51:00,42.6,41.0,30.00,NNE,22,1.1,2.2,94,0.00,,,0.33,open2300-1.11,2013-10-12 05:51:00,
2013-10-12 08:01:00,42.6,41.0,30.02,NNE,22,0.0,0.0,94,0.00,,,0.33,open2300-1.11,2013-10-12 06:01:00,
2013-10-12 08:11:00,43.0,41.4,30.01,NE,45,0.0,1.6,94,0.00,,,0.33,open2300-1.11,2013-10-12 06:11:00,
2013-10-12 08:21:00,43.2,41.5,30.02,NNE,22,0.0,0.9,94,0.00,,,0.33,open2300-1.11,2013-10-12 06:21:00,
2013-10-12 08:31:00,43.7,42.1,30.02,North,0,1.6,3.6,94,0.00,,,0.33,open2300-1.11,2013-10-12 06:31:00,
2013-10-12 08:41:00,43.9,42.3,30.01,North,0,1.6,4.0,94,0.00,,,0.33,open2300-1.11,2013-10-12 06:41:00,
2013-10-12 08:51:00,44.4,42.8,30.01,NNE,22,3.6,8.9,94,0.00,,,0.33,open2300-1.11,2013-10-12 06:51:00,
2013-10-12 09:01:00,44.4,42.8,30.02,East,90,2.5,3.8,94,0.00,,,0.33,open2300-1.11,2013-10-12 07:01:00,
2013-10-12 09:11:00,44.4,42.8,30.03,North,0,2.5,5.4,94,0.00,,,0.33,open2300-1.11,2013-10-12 07:11:00,
2013-10-12 09:21:00,44.4,42.8,30.03,NNE,22,5.6,5.8,94,0.00,,,0.33,open2300-1.11,2013-10-12 07:21:00,
2013-10-12 09:31:00,44.6,43.0,30.03,North,0,2.2,6.5,94,0.00,,,0.33,open2300-1.11,2013-10-12 07:31:00,
2013-10-12 09:41:00,44.8,43.2,30.03,NNE,22,3.8,4.5,94,0.00,,,0.33,open2300-1.11,2013-10-12 07:41:00,
2013-10-12 09:51:00,45.0,43.3,30.02,NNE,22,2.5,6.3,94,0.00,,,0.33,open2300-1.11,2013-10-12 07:51:00,
2013-10-12 10:01:00,45.3,43.7,30.02,NNE,22,1.6,7.8,94,0.00,,,0.33,open2300-1.11,2013-10-12 08:01:00,
2013-10-12 10:11:00,45.5,43.9,30.01,NNE,22,4.5,8.3,94,0.00,,,0.33,open2300-1.11,2013-10-12 08:11:00,
2013-10-12 10:21:00,45.7,44.3,30.02,NNE,22,3.8,6.3,95,0.00,,,0.33,open2300-1.11,2013-10-12 08:21:00,
2013-10-12 10:31:00,46.0,44.4,30.02,NNE,22,0.0,7.4,94,0.00,,,0.33,open2300-1.11,2013-10-12 08:31:00,
2013-10-12 10:41:00,46.4,44.8,30.02,North,0,4.5,7.8,94,0.00,,,0.33,open2300-1.11,2013-10-12 08:41:00,
2013-10-12 10:51:00,46.6,45.0,30.00,NNE,22,4.0,6.3,94,0.00,,,0.33,open2300-1.11,2013-10-12 08:51:00,
2013-10-12 11:01:00,46.9,45.3,30.00,NNE,22,2.7,7.6,94,0.00,,,0.31,open2300-1.11,2013-10-12 09:01:00,
2013-10-12 11:11:00,47.1,45.5,30.00,North,0,4.2,9.2,94,0.00,,,0.31,open2300-1.11,2013-10-12 09:11:00,
2013-10-12 11:21:00,47.1,45.5,29.99,North,0,4.0,10.5,94,0.00,,,0.31,open2300-1.11,2013-10-12 09:21:00,
2013-10-12 11:31:00,47.1,45.5,29.99,NNE,22,8.5,8.5,94,0.00,,,0.31,open2300-1.11,2013-10-12 09:31:00,
2013-10-12 11:41:00,47.5,45.9,29.99,NNE,22,6.7,10.5,94,0.00,,,0.31,open2300-1.11,2013-10-12 09:41:00,
2013-10-12 11:51:00,47.7,46.0,30.00,NNW,337,3.6,6.9,94,0.00,,,0.31,open2300-1.11,2013-10-12 09:51:00,
2013-10-12 12:01:00,47.8,46.2,29.99,NE,45,3.4,7.4,94,0.00,,,0.29,open2300-1.11,2013-10-12 10:01:00,
2013-10-12 12:11:00,48.0,46.4,30.00,ENE,67,4.9,7.2,94,0.00,,,0.29,open2300-1.11,2013-10-12 10:11:00,
2013-10-12 12:21:00,48.0,46.4,29.99,North,0,7.6,8.5,94,0.00,,,0.29,open2300-1.11,2013-10-12 10:21:00,
2013-10-12 12:31:00,48.4,46.7,29.98,North,0,2.2,10.7,94,0.00,,,0.29,open2300-1.11,2013-10-12 10:31:00,
2013-10-12 12:41:00,48.7,47.1,29.97,NNE,22,5.1,9.6,94,0.00,,,0.29,open2300-1.11,2013-10-12 10:41:00,
2013-10-12 12:51:00,49.1,47.4,29.96,NE,45,2.5,8.7,94,0.00,,,0.29,open2300-1.11,2013-10-12 10:51:00,
2013-10-12 13:01:00,49.6,47.9,29.96,NE,45,2.5,12.3,94,0.00,,,0.29,open2300-1.11,2013-10-12 11:01:00,
2013-10-12 13:11:00,50.2,48.7,29.96,NE,45,0.0,5.8,95,0.00,,,0.29,open2300-1.11,2013-10-12 11:11:00,
2013-10-12 13:21:00,50.7,49.3,29.95,East,90,1.1,4.2,95,0.00,,,0.29,open2300-1.11,2013-10-12 11:21:00,
2013-10-12 13:31:00,51.3,49.5,29.95,ENE,67,1.8,6.3,94,0.00,,,0.29,open2300-1.11,2013-10-12 11:31:00,
2013-10-12 13:41:00,51.8,50.1,29.96,North,0,0.0,8.1,94,0.00,,,0.29,open2300-1.11,2013-10-12 11:41:00,
2013-10-12 13:51:00,52.2,50.4,29.97,WNW,292,0.0,3.8,94,0.00,,,0.29,open2300-1.11,2013-10-12 11:51:00,
2013-10-12 14:01:00,52.3,50.6,29.97,WNW,292,0.0,1.8,94,0.00,,,0.22,open2300-1.11,2013-10-12 12:01:00,
2013-10-12 14:11:00,52.3,50.6,29.96,WNW,292,0.0,0.0,94,0.00,,,0.22,open2300-1.11,2013-10-12 12:11:00,
2013-10-12 14:21:00,52.3,50.6,29.96,WNW,292,0.0,0.0,94,0.00,,,0.22,open2300-1.11,2013-10-12 12:21:00,
2013-10-12 14:31:00,52.3,50.6,29.97,NNE,22,0.0,0.0,94,0.00,,,0.22,open2300-1.11,2013-10-12 12:31:00,
2013-10-12 14:41:00,52.3,50.6,29.96,NNE,22,0.0,0.0,94,0.00,,,0.22,open2300-1.11,2013-10-12 12:41:00,
2013-10-12 14:51:00,52.3,50.6,29.96,NNE,22,0.0,0.0,94,0.00,,,0.22,open2300-1.11,2013-10-12 12:51:00,
2013-10-12 15:01:00,52.3,50.6,29.97,NNE,22,0.0,0.0,94,0.00,,,0.20,open2300-1.11,2013-10-12 13:01:00,
2013-10-12 15:11:00,52.3,50.6,29.96,South,180,1.6,4.2,94,0.02,,,0.22,open2300-1.11,2013-10-12 13:11:00,
2013-10-12 15:21:00,52.3,50.6,29.95,South,180,1.1,3.1,94,0.02,,,0.22,open2300-1.11,2013-10-12 13:21:00,
2013-10-12 15:31:00,52.3,50.6,29.95,ENE,67,0.0,2.5,94,0.02,,,0.22,open2300-1.11,2013-10-12 13:31:00,
2013-10-12 15:41:00,52.7,51.0,29.95,East,90,0.0,2.5,94,0.04,,,0.24,open2300-1.11,2013-10-12 13:41:00,
2013-10-12 15:51:00,52.9,51.2,29.95,NNE,22,1.1,6.0,94,0.04,,,0.24,open2300-1.11,2013-10-12 13:51:00,
2013-10-12 16:01:00,53.2,51.5,29.94,NNE,22,1.1,6.3,94,0.04,,,0.18,open2300-1.11,2013-10-12 14:01:00,
2013-10-12 16:11:00,53.2,51.5,29.94,ENE,67,1.1,4.5,94,0.02,,,0.18,open2300-1.11,2013-10-12 14:11:00,
2013-10-12 16:21:00,53.4,51.7,29.93,ENE,67,2.2,3.4,94,0.02,,,0.18,open2300-1.11,2013-10-12 14:21:00,
2013-10-12 16:31:00,53.8,52.0,29.94,ENE,67,0.0,4.2,94,0.02,,,0.18,open2300-1.11,2013-10-12 14:31:00,
2013-10-12 16:41:00,54.0,52.2,29.94,NNE,22,0.9,2.9,94,0.00,,,0.18,open2300-1.11,2013-10-12 14:41:00,
2013-10-12 16:51:00,53.8,52.0,29.94,SSW,202,0.0,4.5,94,0.00,,,0.18,open2300-1.11,2013-10-12 14:51:00,
2013-10-12 17:01:00,54.0,52.2,29.95,SSW,202,0.0,0.0,94,0.00,,,0.06,open2300-1.11,2013-10-12 15:01:00,
2013-10-12 17:11:00,53.8,52.0,29.96,North,0,0.0,0.7,94,0.00,,,0.06,open2300-1.11,2013-10-12 15:11:00,
2013-10-12 17:21:00,53.4,51.7,29.95,North,0,0.0,0.0,94,0.00,,,0.06,open2300-1.11,2013-10-12 15:21:00,
2013-10-12 17:35:00,52.9,51.2,29.95,North,0,0.0,0.7,94,0.00,,,0.06,open2300-1.11,2013-10-12 15:35:00,
2013-10-12 17:41:00,52.7,51.0,29.94,North,0,0.0,0.9,94,0.00,,,0.06,open2300-1.11,2013-10-12 15:41:00,
2013-10-12 17:51:00,52.5,50.8,29.95,North,0,0.0,1.6,94,0.00,,,0.06,open2300-1.11,2013-10-12 15:51:00,
2013-10-12 18:01:00,52.2,50.4,29.95,SSW,202,0.0,1.3,94,0.00,,,0.04,open2300-1.11,2013-10-12 16:01:00,
2013-10-12 18:11:00,51.8,50.1,29.95,SSW,202,0.0,0.0,94,0.00,,,0.04,open2300-1.11,2013-10-12 16:11:00,
2013-10-12 18:21:00,51.6,49.9,29.95,SW,225,0.0,0.9,94,0.00,,,0.04,open2300-1.11,2013-10-12 16:21:00,
2013-10-12 18:31:00,51.4,49.7,29.95,SW,225,0.0,0.0,94,0.00,,,0.04,open2300-1.11,2013-10-12 16:31:00,
2013-10-12 18:55:00,50.9,49.2,29.95,WSW,247,0.0,1.6,94,0.00,,,0.04,open2300-1.11,2013-10-12 16:55:00,
2013-10-12 19:01:00,50.7,49.0,29.95,WSW,247,0.0,0.0,94,0.00,,,0.04,open2300-1.11,2013-10-12 17:01:00,
2013-10-12 19:11:00,50.5,48.8,29.95,WSW,247,0.0,0.9,94,0.00,,,0.04,open2300-1.11,2013-10-12 17:11:00,
2013-10-12 19:21:00,50.5,48.8,29.95,WSW,247,0.0,0.0,94,0.00,,,0.04,open2300-1.11,2013-10-12 17:21:00,
2013-10-12 19:31:00,50.5,48.8,29.95,WSW,247,0.0,0.0,94,0.00,,,0.04,open2300-1.11,2013-10-12 17:31:00,
2013-10-12 19:51:00,50.5,48.8,29.96,SSW,202,0.0,6.0,94,0.00,,,0.04,open2300-1.11,2013-10-12 17:51:00,
2013-10-12 20:01:00,50.5,48.8,29.97,SSW,202,0.0,1.3,94,0.00,,,0.04,open2300-1.11,2013-10-12 18:01:00,
2013-10-12 20:21:00,50.5,48.8,29.98,SW,225,0.0,2.0,94,0.00,,,0.04,open2300-1.11,2013-10-12 18:21:00,
2013-10-12 20:31:00,50.5,48.8,29.98,SSW,202,0.0,1.8,94,0.00,,,0.04,open2300-1.11,2013-10-12 18:31:00,
2013-10-12 20:41:00,50.2,48.5,29.97,SSW,202,0.0,0.9,94,0.00,,,0.04,open2300-1.11,2013-10-12 18:41:00,
2013-10-12 20:51:00,50.0,48.3,29.97,South,180,1.1,1.3,94,0.00,,,0.04,open2300-1.11,2013-10-12 18:51:00,
2013-10-12 21:01:00,49.6,47.9,29.98,SSW,202,0.0,2.2,94,0.00,,,0.04,open2300-1.11,2013-10-12 19:01:00,
2013-10-12 21:11:00,49.6,47.9,29.98,SSW,202,0.0,0.0,94,0.00,,,0.04,open2300-1.11,2013-10-12 19:11:00,
2013-10-12 21:21:00,49.3,47.6,29.98,SSW,202,0.0,0.0,94,0.00,,,0.04,open2300-1.11,2013-10-12 19:21:00,
2013-10-12 21:31:00,49.1,47.4,29.98,SSW,202,0.0,0.7,94,0.00,,,0.04,open2300-1.11,2013-10-12 19:31:00,
2013-10-12 21:41:00,48.7,47.1,29.98,South,180,0.7,2.0,94,0.00,,,0.04,open2300-1.11,2013-10-12 19:41:00,
2013-10-12 21:51:00,48.6,46.9,29.98,South,180,0.0,1.3,94,0.00,,,0.04,open2300-1.11,2013-10-12 19:51:00,
2013-10-12 22:05:00,48.4,46.7,29.98,SSW,202,0.0,2.7,94,0.00,,,0.04,open2300-1.11,2013-10-12 20:05:00,
2013-10-12 22:11:00,48.4,46.7,29.99,SSW,202,1.1,1.6,94,0.00,,,0.04,open2300-1.11,2013-10-12 20:11:00,
2013-10-12 22:21:00,48.4,46.7,29.99,SSE,157,0.0,2.5,94,0.00,,,0.04,open2300-1.11,2013-10-12 20:21:00,
2013-10-12 22:35:00,48.6,46.9,29.98,SSW,202,0.0,3.4,94,0.00,,,0.04,open2300-1.11,2013-10-12 20:35:00,
2013-10-12 22:45:00,48.4,46.7,29.99,South,180,0.0,0.9,94,0.00,,,0.04,open2300-1.11,2013-10-12 20:45:00,
2013-10-12 22:51:00,48.2,46.6,29.99,South,180,0.0,0.0,94,0.00,,,0.04,open2300-1.11,2013-10-12 20:51:00,
2013-10-12 23:01:00,48.0,46.4,29.99,South,180,0.0,0.0,94,0.00,,,0.04,open2300-1.11,2013-10-12 21:01:00,
2013-10-12 23:11:00,47.8,46.2,29.99,South,180,0.0,0.0,94,0.00,,,0.04,open2300-1.11,2013-10-12 21:11:00,
2013-10-12 23:25:00,47.5,45.6,29.99,South,180,0.0,0.0,93,0.00,,,0.04,open2300-1.11,2013-10-12 21:25:00,
2013-10-12 23:31:00,47.5,45.6,29.99,South,180,0.0,0.0,93,0.00,,,0.04,open2300-1.11,2013-10-12 21:31:00,
2013-10-12 23:41:00,47.3,45.7,30.00,South,180,0.0,0.0,94,0.00,,,0.04,open2300-1.11,2013-10-12 21:41:00,
2013-10-12 23:51:00,47.5,45.9,30.00,South,180,0.0,0.0,94,0.00,,,0.04,open2300-1.11,2013-10-12 21:51:00,